• In Spain
  • List of Countries
  • For 7 days
  • Water Temperature
  • Satellite Maps
  • Weather Map
  • Weather Widgets
  • user-avatar
    Login

    Hourly Weather Korgovo

    Today, 28 May, Monday

    Time Temperature Precipitation Wind Pressure Humidity
    00:00 +9°C° 0 mm 3 mps 758 mmHg 48%
    01:00 +8°C° 0 mm 2 mps 759 mmHg 52%
    02:00 +7°C° 0 mm 2 mps 759 mmHg 55%
    03:00 +7°C° 0 mm 2 mps 760 mmHg 55%
    04:00 +8°C° 0 mm 2 mps 760 mmHg 54%
    05:00 +8°C° 0 mm 2 mps 761 mmHg 54%
    06:00 +10°C° 0 mm 2 mps 761 mmHg 49%
    07:00 +12°C° 0 mm 2 mps 762 mmHg 44%
    08:00 +14°C° 0 mm 2 mps 762 mmHg 39%
    09:00 +15°C° 0 mm 2 mps 762 mmHg 36%
    10:00 +16°C° 0 mm 2 mps 762 mmHg 33%
    11:00 +18°C° 0 mm 2 mps 762 mmHg 31%
    12:00 +18°C° 0 mm 2 mps 762 mmHg 30%
    13:00 +19°C° 0 mm 2 mps 762 mmHg 30%
    14:00 +20°C° 0 mm 2 mps 761 mmHg 29%
    15:00 +19°C° 0 mm 2 mps 761 mmHg 31%
    16:00 +20°C° 0 mm 1 mps 761 mmHg 33%
    17:00 +20°C° 0 mm 1 mps 761 mmHg 35%
    18:00 +18°C° 0 mm 1 mps 761 mmHg 42%
    19:00 +15°C° 0 mm 1 mps 760 mmHg 48%
    20:00 +13°C° 0 mm 1 mps 760 mmHg 55%
    21:00 +12°C° 0 mm 1 mps 761 mmHg 56%
    22:00 +11°C° 0 mm 1 mps 761 mmHg 57%
    23:00 +10°C° 0 mm 2 mps 761 mmHg 58%

    Tomorrow, 29 May, Tuesday

    Time Temperature Precipitation Wind Pressure Humidity
    00:00 +9°C° 0 mm 2 mps 761 mmHg 60%
    01:00 +9°C° 0 mm 2 mps 761 mmHg 62%
    02:00 +8°C° 0 mm 2 mps 761 mmHg 64%
    03:00 +9°C° 0 mm 2 mps 761 mmHg 63%
    04:00 +10°C° 0 mm 2 mps 761 mmHg 63%
    05:00 +10°C° 0 mm 2 mps 760 mmHg 62%
    06:00 +13°C° 0 mm 3 mps 760 mmHg 57%
    07:00 +16°C° 0 mm 3 mps 760 mmHg 51%
    08:00 +18°C° 0 mm 3 mps 759 mmHg 46%
    09:00 +19°C° 0 mm 3 mps 759 mmHg 42%
    10:00 +21°C° 0 mm 3 mps 758 mmHg 39%
    11:00 +22°C° 0 mm 4 mps 758 mmHg 36%
    12:00 +23°C° 0 mm 4 mps 757 mmHg 35%
    13:00 +23°C° 0 mm 4 mps 756 mmHg 34%
    14:00 +25°C° 0 mm 4 mps 755 mmHg 34%
    15:00 +25°C° 0 mm 4 mps 754 mmHg 37%
    16:00 +24°C° 0 mm 3 mps 754 mmHg 40%
    17:00 +24°C° 0 mm 3 mps 753 mmHg 43%
    18:00 +21°C° 0 mm 3 mps 752 mmHg 52%
    19:00 +19°C° 0 mm 3 mps 752 mmHg 61%
    20:00 +17°C° 0 mm 2 mps 751 mmHg 70%
    21:00 +17°C° 0 mm 2 mps 751 mmHg 74%
    22:00 +16°C° 0 mm 3 mps 750 mmHg 77%
    23:00 +16°C° 0 mm 3 mps 750 mmHg 81%

    Day after tomorrow, 30 May, Wednesday

    Time Temperature Precipitation Wind Pressure Humidity
    00:00 +14°C° 0 mm 3 mps 750 mmHg 81%
    01:00 +14°C° 0 mm 3 mps 749 mmHg 82%
    02:00 +13°C° 0 mm 3 mps 749 mmHg 82%
    03:00 +14°C° 0 mm 3 mps 748 mmHg 78%
    04:00 +14°C° 0 mm 4 mps 748 mmHg 74%
    05:00 +14°C° 0 mm 4 mps 747 mmHg 69%
    06:00 +16°C° 0 mm 5 mps 747 mmHg 62%
    07:00 +19°C° 0 mm 5 mps 746 mmHg 55%
    08:00 +21°C° 0 mm 5 mps 746 mmHg 49%
    09:00 +22°C° 0 mm 6 mps 745 mmHg 45%
    10:00 +23°C° 0 mm 6 mps 745 mmHg 42%
    11:00 +24°C° 0 mm 7 mps 744 mmHg 39%
    12:00 +26°C° 0 mm 7 mps 744 mmHg 38%
    13:00 +26°C° 0 mm 7 mps 744 mmHg 37%
    14:00 +26°C° 0 mm 7 mps 743 mmHg 36%
    15:00 +24°C° 0 mm 6 mps 743 mmHg 39%
    16:00 +22°C° 0 mm 5 mps 743 mmHg 42%
    17:00 +21°C° 0 mm 4 mps 743 mmHg 45%
    18:00 +19°C° 0 mm 4 mps 744 mmHg 48%
    19:00 +16°C° 0 mm 3 mps 744 mmHg 51%
    20:00 +13°C° 0 mm 3 mps 745 mmHg 54%
    21:00 +12°C° 0 mm 3 mps 745 mmHg 59%
    22:00 +12°C° 0 mm 2 mps 745 mmHg 63%
    23:00 +10°C° 0 mm 2 mps 746 mmHg 67%

    31 May, Thursday

    Time Temperature Precipitation Wind Pressure Humidity
    00:00 +9°C° 0 mm 2 mps 746 mmHg 69%
    01:00 +9°C° 0 mm 3 mps 747 mmHg 72%
    02:00 +8°C° 0 mm 3 mps 747 mmHg 74%
    03:00 +8°C° 0 mm 3 mps 748 mmHg 70%
    04:00 +7°C° 0 mm 4 mps 748 mmHg 65%
    05:00 +7°C° 0 mm 4 mps 749 mmHg 60%
    06:00 +7°C° 0 mm 4 mps 749 mmHg 55%
    07:00 +8°C° 0 mm 4 mps 750 mmHg 51%
    08:00 +10°C° 0 mm 4 mps 750 mmHg 46%
    09:00 +11°C° 0 mm 4 mps 750 mmHg 42%
    10:00 +12°C° 0 mm 4 mps 751 mmHg 39%
    11:00 +12°C° 0 mm 4 mps 751 mmHg 35%
    12:00 +13°C° 0 mm 4 mps 751 mmHg 34%
    13:00 +13°C° 0 mm 4 mps 751 mmHg 33%
    14:00 +14°C° 0 mm 4 mps 751 mmHg 31%
    15:00 +13°C° 0 mm 4 mps 751 mmHg 32%
    16:00 +13°C° 0 mm 4 mps 752 mmHg 34%
    17:00 +13°C° 0 mm 4 mps 752 mmHg 35%
    18:00 +11°C° 0 mm 3 mps 752 mmHg 41%
    19:00 +9°C° 0 mm 3 mps 753 mmHg 48%
    20:00 +8°C° 0 mm 2 mps 753 mmHg 54%
    21:00 +7°C° 0 mm 2 mps 753 mmHg 56%
    22:00 +6°C° 0 mm 2 mps 754 mmHg 57%
    23:00 +5°C° 0 mm 2 mps 754 mmHg 59%

    1 June, Friday

    Time Temperature Precipitation Wind Pressure Humidity
    00:00 +4°C° 0 mm 2 mps 755 mmHg 61%
    01:00 +3°C° 0 mm 2 mps 755 mmHg 64%
    02:00 +2°C° 0 mm 2 mps 756 mmHg 66%
    03:00 +3°C° 0 mm 2 mps 756 mmHg 64%
    04:00 +2°C° 0 mm 3 mps 756 mmHg 63%
    05:00 +3°C° 0 mm 3 mps 756 mmHg 61%
    06:00 +4°C° 0 mm 3 mps 757 mmHg 56%
    07:00 +7°C° 0 mm 3 mps 757 mmHg 50%
    08:00 +8°C° 0 mm 3 mps 757 mmHg 45%
    09:00 +9°C° 0 mm 3 mps 757 mmHg 43%
    10:00 +10°C° 0 mm 3 mps 757 mmHg 40%
    11:00 +11°C° 0 mm 3 mps 757 mmHg 37%
    12:00 +12°C° 0 mm 3 mps 757 mmHg 36%
    13:00 +13°C° 0 mm 3 mps 756 mmHg 34%
    14:00 +14°C° 0 mm 3 mps 756 mmHg 33%
    15:00 +15°C° 0 mm 2 mps 756 mmHg 33%
    16:00 +15°C° 0 mm 2 mps 756 mmHg 34%
    17:00 +15°C° 0 mm 2 mps 756 mmHg 34%
    18:00 +13°C° 0 mm 1 mps 756 mmHg 42%
    19:00 +11°C° 0 mm 1 mps 756 mmHg 50%
    20:00 +8°C° 0 mm 0 mps 756 mmHg 58%
    21:00 +7°C° 0 mm 0 mps 757 mmHg 60%
    22:00 +6°C° 0 mm 0 mps 757 mmHg 62%
    23:00 +6°C° 0 mm 1 mps 757 mmHg 64%

    2 June, Saturday

    Time Temperature Precipitation Wind Pressure Humidity
    00:00 +6°C° 0 mm 1 mps 757 mmHg 65%
    01:00 +5°C° 0 mm 1 mps 757 mmHg 67%
    02:00 +5°C° 0 mm 1 mps 757 mmHg 68%
    03:00 +6°C° 0 mm 1 mps 758 mmHg 66%
    04:00 +7°C° 0 mm 1 mps 758 mmHg 64%
    05:00 +8°C° 0 mm 1 mps 758 mmHg 62%
    06:00 +10°C° 0 mm 1 mps 758 mmHg 55%
    07:00 +13°C° 0 mm 1 mps 758 mmHg 48%
    08:00 +15°C° 0 mm 1 mps 758 mmHg 42%
    09:00 +18°C° 0 mm 1 mps 757 mmHg 38%
    10:00 +19°C° 0 mm 1 mps 757 mmHg 35%
    11:00 +20°C° 0 mm 1 mps 757 mmHg 32%
    12:00 +20°C° 0 mm 2 mps 756 mmHg 32%
    13:00 +20°C° 0 mm 2 mps 756 mmHg 31%
    14:00 +20°C° 0 mm 2 mps 755 mmHg 31%
    15:00 +20°C° 0 mm 2 mps 755 mmHg 33%
    16:00 +20°C° 0 mm 2 mps 754 mmHg 35%
    17:00 +20°C° 0 mm 2 mps 754 mmHg 37%
    18:00 +18°C° 0 mm 2 mps 754 mmHg 46%
    19:00 +16°C° 0 mm 2 mps 753 mmHg 54%
    20:00 +14°C° 0 mm 2 mps 753 mmHg 62%
    21:00 +13°C° 0 mm 2 mps 753 mmHg 64%
    22:00 +12°C° 0 mm 2 mps 753 mmHg 65%
    23:00 +10°C° 0 mm 2 mps 753 mmHg 67%
    Show more